User: anonymous   Login
Location: Ladrillo (historical)
(32.8195°N, 117.2231°W)
Time: 22:05:54
(UTC+00:00)
Language:

Meteor PRIRODA - Orbit

View from above orbital plane
View from above orbital plane
View from above satellite
View from above satellite

Ground track
Ground track

The orbit data is extracted from the following two-line orbital elements,

1 12585U 81065A   21016.55664772  .00000506  00000-0  25274-4 0  9998
2 12585  97.5639  12.0496 0015115 139.3433 220.8935 15.22014724155517
Epoch (UTC): 16 January 2021 13:21:34
Eccentricity: 0.0015115
inclination: 97.5639°
perigee height: 489 km
apogee height: 510 km
right ascension of ascending node: 12.0496°
argument of perigee: 139.3433°
revolutions per day: 15.22014724
mean anomaly at epoch: 220.8935°
orbit number at epoch: 15551

The dashed part of the orbit path shows where the satellite is in the earth's shadow,  

DLR